Location: Chuathbaluk
(61.5726°N, 159.2454°W)
Time: 04:51:13
(UTC+00:00)

Transit 4A - Pass Details

Date: 02 December 2020
Orbit: 864 x 980 km, 66.8° (Epoch: 26 January)

Event Time Altitude Azimuth Distance (km) Brightness Sun altitude
Rises 01:38:35 0° 308° (NW) 3,695 11.1 -2.0°
Reaches altitude 10° 01:41:12 10° 306° (NW) 2,741 10.5 -2.2°
Maximum altitude 01:47:31 63° 227° (SW) 1,081 8.7 -2.7°
Drops below altitude 10° 01:53:42 10° 148° (SSE) 2,681 10.5 -3.2°
Sets 01:56:14 0° 145° (SE) 3,608 11.1 -3.5°
